Borger, TX

9:42 AM CDT on June 27, 2017 (GMT -0500)
Hutchinson County

Weather History for KBGD - January, 2014

Change the Weather History Date:

Wednesday, January 1, 2014

  Actual Average Record
Temperature  
Mean Temperature 40 °F 37 °F  
Max Temperature 55 °F 49 °F 74 °F (1997)
Min Temperature 24 °F 25 °F 0 °F (1979)
Degree Days  
Heating Degree Days 25 28  
Month to date heating degree days 25 28  
Since 1 July heating degree days 1582 1565  
Cooling Degree Days 0 0  
Month to date cooling degree days 0 0  
Year to date cooling degree days 0 0  
Moisture  
Dew Point 21 °F    
Average Humidity 52    
Maximum Humidity 75    
Minimum Humidity 29    
Precipitation  
Precipitation 0.00 in 0.01 in 0.21 in (1993)
Month to date precipitation 0.00 0.01  
Year to date precipitation 0.00 0.01  
Snow  
Snow 0.00 in - 3.00 in (1985)
Month to date snowfall 0.0  
Since 1 July snowfall 7.2  
Snow Depth 0.00 in    
Sea Level Pressure  
Sea Level Pressure 30.05 in    
Wind  
Wind Speed 13 mph (NW)    
Max Wind Speed 29 mph    
Max Gust Speed 36 mph    
Visibility 10 miles    
Events      
T = Trace of Precipitation, MM = Missing Value Source: NWS Daily Summary

Daily Weather History Graph

Daily Weather History Graph

Search for Another Location

Airport or City:

Trip Planner

Search our weather history database for the weather conditions in past years. The results will help you decide how hot, cold, wet, or windy it might be!

Date:

Astronomy

Jan. 01, 2014 Rise Set
Actual Time 7:55 AM CST 5:43 PM CST
Civil Twilight 7:27 AM CST 6:11 PM CST
Nautical Twilight 6:55 AM CST 6:43 PM CST
Astronomical Twilight 6:24 AM CST 7:14 PM CST
Moon 7:49 AM CST (1/1) 6:27 PM CST (1/1)
Length of Visible Light 10h 44m
Length of Day
9h 47m
New Moon, 0% of the Moon is Illuminated
Jan 1
New Moon
Jan 7
First Quarter
Jan 15
Full
Jan 23
Last Quarter
Jan 30
New

Hourly Weather History & Observations

Time (CST) Temp. Windchill Dew Point Humidity Pressure Visibility Wind Dir Wind Speed Gust Speed Precip Events Conditions
12:51 AM 37.0 °F 34.5 °F 19.0 °F 48% 29.90 in 10.0 mi WSW 3.5 mph - N/A   Clear
1:51 AM 36.0 °F 32.1 °F 19.0 °F 50% 29.88 in 10.0 mi West 4.6 mph - N/A   Clear
2:51 AM 33.1 °F 26.9 °F 19.9 °F 59% 29.88 in - WSW 6.9 mph - N/A   Clear
3:51 AM 33.1 °F 25.5 °F 19.9 °F 59% 29.86 in - WSW 9.2 mph - N/A   Clear
4:51 AM 30.9 °F 22.8 °F 19.9 °F 64% 29.86 in - West 9.2 mph - N/A   Clear
5:51 AM 30.9 °F 22.8 °F 19.9 °F 64% 29.85 in 10.0 mi SW 9.2 mph - N/A   Clear
6:51 AM 33.1 °F 26.9 °F 21.0 °F 61% 29.86 in - SW 6.9 mph - N/A   Clear
7:51 AM 35.1 °F 26.4 °F 19.9 °F 54% 29.87 in - WSW 12.7 mph - N/A   Clear
8:51 AM 36.0 °F 29.6 °F 21.0 °F 55% 29.89 in - WSW 8.1 mph - N/A   Clear
9:51 AM 42.1 °F 36.1 °F 21.9 °F 45% 29.90 in - West 10.4 mph - N/A   Clear
10:51 AM 50.0 °F - 24.1 °F 36% 29.93 in - NNW 9.2 mph - N/A   Clear
11:48 AM 53.6 °F - 24.8 °F 33% 29.95 in - NNW 13.8 mph 21.9 mph N/A   Clear
11:51 AM 54.0 °F - 24.1 °F 31% 29.93 in - NNW 17.3 mph 25.3 mph N/A   Clear
12:51 PM 48.9 °F - 19.9 °F 32% 29.98 in - North 18.4 mph 32.2 mph N/A   Clear
1:51 PM 50.0 °F - 19.9 °F 31% 30.01 in - North 19.6 mph 27.6 mph N/A   Scattered Clouds
2:51 PM 50.0 °F - 27.0 °F 41% 30.03 in - North 23.0 mph 32.2 mph N/A   Clear
3:51 PM 48.0 °F - 28.9 °F 48% 30.09 in - North 21.9 mph 31.1 mph N/A   Clear
4:51 PM 39.9 °F 29.0 °F 26.1 °F 58% 30.17 in - North 26.5 mph 33.4 mph N/A   Clear
5:51 PM 33.1 °F 22.2 °F 23.0 °F 66% 30.25 in - North 17.3 mph - N/A   Clear
6:51 PM 30.0 °F 20.5 °F 19.9 °F 66% 30.28 in - North 11.5 mph - N/A   Clear
7:51 PM 28.9 °F 16.9 °F 19.0 °F 67% 30.34 in - North 17.3 mph 24.2 mph N/A   Mostly Cloudy
8:51 PM 28.0 °F 16.5 °F 19.0 °F 69% 30.38 in - North 15.0 mph - N/A   Mostly Cloudy
9:51 PM 27.0 °F 14.3 °F 19.0 °F 72% 30.38 in - North 17.3 mph 24.2 mph N/A   Mostly Cloudy
10:51 PM 26.1 °F 13.6 °F 18.0 °F 71% 30.39 in - NNE 16.1 mph - N/A   Clear
11:51 PM 24.1 °F 13.1 °F 17.1 °F 75% 30.40 in - North 11.5 mph - N/A   Clear